Regional Weather Roundup
Issued by NWS Upton, NY

Current Version | Previous Version | Graphics & Text | Print | Product List | Glossary Off
Versions: 1 2 3 4 5 6 7 8 9 10 11 12 13 14 15 16 17 18 19 20 21 22 23 24 25 26 27 28 29 30 31 32 33 34 35 36 37 38 39 40 41 42 43 44 45 46 47 48 49 50

000
ASUS41 KOKX 250905
RWROKX

REGIONAL WEATHER ROUNDUP
NATIONAL WEATHER SERVICE NEW YORK NY
400 AM EST TUE NOV 25 2014

NOTE: "FAIR" INDICATES FEW OR NO CLOUDS BELOW 12,000 FEET WITH NO
SIGNIFICANT WEATHER AND/OR OBSTRUCTIONS TO VISIBILITY.

NYZ071-072-176-178-NJZ106-104-251000-
NEW YORK CITY METRO AREA


CITY           SKY/WX    TMP DP  RH WIND       PRES   REMARKS
CENTRAL PARK   CLOUDY    64  54  69 VRB3      29.82R
LAGUARDIA APRT CLOUDY    64  54  69 W10       29.80R
KENNEDY INTL   CLOUDY    55  52  89 S13       29.82R
NEWARK/LIBERTY CLOUDY    63  52  67 SW8G21    29.80R
BRNX BOT. GARD   N/A     64  55  72 SE3       29.81R
TETERBORO      CLOUDY    64  54  69 SW3       29.79R
$$

NYZ177-179-078>081-251000-
LONG ISLAND NEW YORK

CITY           SKY/WX    TMP DP  RH WIND       PRES   REMARKS
FARMINGDALE    CLOUDY    58  55  90 SW9       29.82R
ISLIP          CLOUDY    57  55  93 SW13      29.80R
SHIRLEY        CLOUDY    58  57  97 SW7       29.83R
WESTHAMPTON    CLOUDY    58  56  93 SW10      29.83R FOG
MONTAUK POINT    N/A     59  57  93 SW15G24   29.80S
$$

NYZ052-065-067-251000-
HUDSON VALLEY

CITY           SKY/WX    TMP DP  RH WIND       PRES   REMARKS
WHITE PLAINS   CLOUDY    62  56  80 W3        29.79R
NEWBURGH       PTCLDY    59  54  82 W12       29.80R
MONTGOMERY     CLOUDY    55  51  86 SW9       29.78R
POUGHKEEPSIE   CLOUDY    62  52  69 SW7       29.77R
ALBANY         CLOUDY    55  44  66 N12       29.75R
$$

NJZ001-105-106-008-010-013-015-019>022-104-251000-
NEW JERSEY

CITY           SKY/WX    TMP DP  RH WIND       PRES   REMARKS
NEWARK/LIBERTY CLOUDY    63  52  67 SW8G21    29.80R
TETERBORO      CLOUDY    64  54  69 SW3       29.79R
CALDWELL       CLOUDY    62  49  62 MISG      29.80R
MORRISTOWN       N/A     64  48  55 W8G18     29.80R
SOMERVILLE     CLOUDY    63  48  58 VRB6      29.80R
SUSSEX         CLOUDY    57  50  77 SW7       29.82R
ANDOVER          N/A     57  50  77 CALM      29.82R
TRENTON        CLOUDY    62  51  67 W7        29.84R
MILLVILLE      CLOUDY    63  59  87 W9        29.86S
ATLANTIC CITY  CLOUDY    63  59  87 SW9       29.86R
WRIGHTSTOWN    CLOUDY    60  58  92 SW9       29.84R
TOMS RIVER     CLOUDY    61  57  88 SW9       29.86R
BELMAR         CLOUDY    61  54  77 SW7       29.85R
$$

PAZ047>061-062-071-251000-
EASTERN PENNSYLVANIA

CITY           SKY/WX    TMP DP  RH WIND       PRES   REMARKS
PHILADELPHIA   CLOUDY    61  56  83 S8        29.87R
ALLENTOWN      CLOUDY    58  34  40 W8        29.83R
SCRANTON       CLOUDY    54  32  43 W15G29    29.86R
$$

CTZ002-004>006-009-010-012-RIZ004-006-007-MAZ004-011-015-251000-
SOUTHERN NEW ENGLAND
 IN CT

CITY           SKY/WX    TMP DP  RH WIND       PRES   REMARKS
BRADLEY INTL   CLOUDY    62  54  74 S6        29.73S
HARTFORD       CLOUDY    57  54  89 S9        29.76R
DANBURY        CLOUDY    58  52  80 SW5       29.79R
WTRBRY/OXFORD  CLOUDY    61  54  77 SW3       29.79S
BRIDGEPORT     CLOUDY    54  53  97 SW6       29.79R
MERIDEN        CLOUDY    55  53  93 S12       29.78R FOG
NEW HAVEN      FOG       53  50  89 CALM      29.79R VSB 1/2
CHESTER        CLOUDY    55  55 100 SW7       29.80R FOG
GROTON         CLOUDY    55  55 100 SW8       29.80R FOG
WILLIMANTIC    CLOUDY    57  54  89 S5        29.77R

 IN RI

CITY           SKY/WX    TMP DP  RH WIND       PRES   REMARKS
PROVIDENCE     CLOUDY    57  55  93 SW6       29.78R
BLOCK ISLAND   CLOUDY    57  54  88 SW16G23   29.80R
WESTERLY       CLOUDY    56  56 100 SW6       29.81R FOG

 IN MA

CITY           SKY/WX    TMP DP  RH WIND       PRES   REMARKS
BOSTON         MOCLDY    57  55  93 SW9       29.73S
WORCESTER      MOCLDY    58  53  84 SW10      29.75R
WESTFIELD      CLOUDY    58  51  78 S6        29.73S
PROVINCETOWN   CLOUDY    55  54  94 SW17      29.77F VSB 3/4
NANTUCKET      FOG       56  54  93 S6        29.80S VSB 3/4
$$

ANZ330-335-338-340-345-350-353-355-251000-
COASTAL MARINE OBSERVATIONS


STATION/POSITION TIME  SKY/WX   TEMP    WIND        PRES    VSBY  WAVE
                                AIR SEA DIR/SP/G                  HT/PER
                 (UTC)          (F)     (DEG/KT/KT) (MB)    (MI)  (FT/S)
NY HARB ENTRANCE 0900            57 55  220/ 16/ 17 1010.4          7/10
4S FIRE IS       0900               53                N/A           9/ 9
20S FIRE ISLAND  0900            59 56  220/ 19/ 25 1009.7          9/10
23SW MTP         0900                                 N/A          10/10
HUDSON CANYON    0900            62 60  230/ 19/ 23 1010.7         10/11
EXECUTION ROCKS  0900            56 48  200/  6/  8   N/A
WESTERN LI SOUND 0900            56     180/  8/  8   N/A           0
CENTRAL LI SOUND 0800            53 50  210/ 12/ 14   N/A           2/ 3
EASTERN LI SOUND 0800            56 53  240/ 14/ 17   N/A
ROBBINS REEF     0900            65     260/ 10/ 12 1007.9
$$


>>>>>>>>>>>>>>>>>>>>>>>>>>>> KEY <<<<<<<<<<<<<<<<<<<<<<<<<<<
>                                                          <
>     SKY/WX - SKY CONDITION/PRESENT WEATHER               <
>     TMP    - TEMPERATURE IN FAHRENHEIT                   <
>     DP     - DEWPOINT IN FAHRENHEIT                      <
>     RH     - RELATIVE HUMIDITY IN PERCENT                <
>     WIND   - DIRECTION AND SPEED IN MPH                  <
>     PRES   - MEAN SEA LEVEL PRESSURE IN INCHES OF HG     <
>     WCI    - WIND CHILL INDEX                            <
>     VSB    - VISIBILITY IN MILES                         <
>     HX     - HEAT INDEX                                  <
>     TC     - TEMPERATURE IN CELSIUS                      <
>     VRB    - VARIABLE WIND DIRECTION                     <
>                                                          <
>>>>>>>>>>>>>>>>>>>>>>>>>>>> KEY <<<<<<<<<<<<<<<<<<<<<<<<<<<





USA.gov is the U.S. government's official web portal to all federal, state and local government web resources and services.